Погода в Кызылорде

Хотите узнать прогноз погоды в Кызылорде? Тогда Вам сюда: Погода в Кызылорде

Поиск расширенной информации на нашем сайте:

Полезная информация:

Новости сайта



02.01.2020
Опубликован Долгосрочный прогноз погоды по городам России и ближнего зарубежья на январь 2020 года.
Карты: Прогноз на январь и февраль 2020 года, Сравнение прогнозируемой аномалии приземной температуры воздуха на январь 2020 года по разным моделям.




Погода в Кызылорде - сегодня

Время (UTC), дата Ветер
(°,м/с) 
Видим.   Явления Облачность Т
(°С)
Тd
(°С)
f(%) Тe
(°С)
Pmin
(гПа)
dP
(гПа)
Po
(мм)
O2
(г/м3)
Тmin Tmax R s Состояние
почвы
12 16.04.21 310 (СЗ) 20000 м    3/3 1000 м 
[Cu med, cong]
+25.7 +3 23 +26  1013  749  275           
15 16.04.21 тихо ()   н/о    ясно 
+21.3 +1.8 27 +21  1014  0.8  749  280    +27       
18 16.04.21 тихо ()   н/о    ясно 
+16.6 +7.1 53 +17  1014.9  0.7  750  284    +27       
21 16.04.21 тихо ()   н/о    ясно 
+14.6 +7.8 64 +15  1015.6  0.5  750  286           
00 17.04.21 250 (З) н/о    ясно 
+14 +6.8 62 +15  1016.3  0.7  751  287           
03 17.04.21 100 (В) 50000 м    4/0 верхняя 
[Ci fib]
+16.7 +5.5 48 +18  1017.4  1.3  752  285           
06 17.04.21 110 (В) 20000 м    8/0 средняя, верхняя 
[Ac lent|Ci]
+24 +6.1 32 +24  1017.9  0.7  752  278  +10.9         
09 17.04.21 150 (ЮВ) 20000 м    8/8 1000 м 
[Cu med, cong]
+27.1 +1.3 19 +27  1016.8  -0.8  752  275           
12 17.04.21 тихо ()   20000 м    8/8 1000 м кучево-дожд. 
[Cb calv]
+26.1 +4 24 +26  1016.1  -0.8  751  276           
15 17.04.21 тихо ()   н/о    8/6 1000 м кучево-дожд., средняя 
[Cb cap|Ac lent]
+22.2 +5.8 34 +22  1016.5  0.3  751  279    +28.2       
18 17.04.21 100 (В) н/о    4/0 средняя 
[Ac cuf]
+19.1 +5.8 42 +20  1017.2  0.4  751  282    +28.2       
21 17.04.21 тихо ()   н/о    ясно 
+15.6 +4.8 49 +16  1017  -0.4  751  286           
00 18.04.21 тихо ()   н/о    ясно 
+13.9 +6.7 62 +14  1017.1  751  287           
03 18.04.21 тихо ()   50000 м    ясно 
+17.3 +5.6 46 +17  1017.7  0.9  752  284           
06 18.04.21 тихо ()   20000 м    3/0 верхняя 
[Ci]
+27.2 +3.6 22 +27  1016.9  -0.3  752  275  +11.5         
09 18.04.21 270 (З) 20000 м    8/4 1000 м верхняя 
[Cu med, cong|Ci sp]
+28.9 -2.5 13 +29  1015.7  -1.1  751  274           
12 18.04.21 260 (З) 20000 м    9/5 1000 м кучево-дожд., средняя, верхняя 
[Cb cap|Ac cuf|Ci fib]
+27.3 +0.4 17 +27  1014.9  -0.9  750  275           
15 18.04.21 270 (З) н/о    9/5 1000 м кучево-дожд., средняя 
[Cb cap|Ac cuf]
+22.8 +4.6 31 +23  1015.7  0.6  751  278    +29.8       
18 18.04.21 тихо ()   н/о    9/6 1000 м кучево-дожд., средняя 
[Cb cap|Ac As]
+19.2 +6.4 43 +19  1016  0.1  751  282    +29.8       
21 18.04.21 270 (З) н/о    9/6 1000 м кучево-дожд., средняя 
[Cb cap|Ac lent]
+18.4 +5.8 44 +20  1015.8  -0.2  750  282           
00 19.04.21 тихо ()   н/о    10/5 1000 м кучево-дожд., средняя 
[Cb cap|Ac As]
+17.9 +5.9 45 +18  1015.1  -0.8  750  283           
03 19.04.21 тихо ()   50000 м    8/4 1000 м кучево-дожд., средняя 
[Cb calv|Ac cuf]
+19.8 +4.8 37 +20  1014.6  -0.4  750  281           
06 19.04.21 210 (ЮЗ) 20000 м    9/3 1000 м средняя, верхняя 
[Cu med, cong|Ac lent|Ci]
+25.8 +4.6 26 +26  1013.6  -0.7  749  275  +15.3         
09 19.04.21 240 (ЮЗ) 20000 м  пыльный позёмок  8/3 1000 м кучево-дожд., средняя 
[Cb calv|Ac cuf]
+27.5 +1.7 19 +28  1011.6  -1.9  748  273           
12 19.04.21 310 (СЗ) 20000 м  пыльный позёмок  10/10 1000 м кучево-дожд. 
[Cb cap]
+26.2 +2.3 21 +26  1010.5  -1.2  747  274           
Время (UTC), дата Ветер
(°,м/с) 
Видим.   Явления Облачность Т
(°С)
Тd
(°С)
f(%) Тe
(°С)
Pmin
(гПа)
dP
(гПа)
Po
(мм)
O2
(г/м3)
Тmin Tmax R s Состояние
почвы

Для получения пояснительной информации подведите курсор к названию столбца.

ПОГОДА в Кызылорде - архив

Всё, что Вы хотите узнать о погоде в Кызылорде - удобно и подробно!

Выберите нужную дату (начиная с 1 января 2019* года) и нажмите кнопку "Найти".
Будут отображены архивные сводки погоды по пункту Кызылорда, начиная с указанной даты.


Отображать данные в формате CSV (для использования в таблицах Excel)


Внимание! Наш архив погоды предназначен исключительно для личного некоммерческого использования в познавательных целях. Если Вам необходимы официальные справки о состоянии погоды (для производственных, юридических, коммерческих и т.п. целей), обращайтесь в органы Росгидромета.

*Примечание: данная дата относится к архиву по метеостанциям СССР (Россия, СНГ, Балтия).
Архив по метеостанциям Зарубежной Европы и Азии (кроме Китая) хранится 10 дней, по другим регионам земного шара (Китай, Африка, Америка, Австралия, Океания) - 1 день.

Кызылорда - район местоположения метеостанции


Название, широта, долгота, высота метеостанции:
Кызылорда (город) 44.8°ш. 65.5°д. 130 м над ур. моря [Казахстан]

Дополнительная информация

В oтличие oт бoльшинства пoгoдных сайтoв мы публикуем пoдрoбную метеoинфoрмацию в детальнoм прoфессиoнальнoм фoрмате.

Характеристики температуры и влажнoсти вoздуха измеряются на высoте 2 м в тени вдали oт зданий и деревьев.
Скoрoсть ветра измеряется на высoте 10 м (на урoвне рoста челoвека скoрoсть ветра ниже в 1.5-2 раза). Если метеoстанция нахoдится в гoрoде или в лесу, тo скoрoсть ветра занижена на 2-4 м/с пo сравнению с oткрытым местoм. Скoрoсть ветра над акватoриями крупных рек и oзёр, а также на вершинах хoлмoв на 2-5 м/с выше, чем в oбычных услoвиях.
Атмoсфернoе давление в разных тoчках местнoсти мoжет значительнo oтличаться oт давления на метеoстанции, в зависимoсти oт услoвий рельефа (при пoдъёме на 10 м давление пoнижается примернo на 1 мм рт.ст.).